CAPE
78 95 93 85 65 63 70 74 93 74 49 43 50 47 42 19 20 15 4 0 0 0 0 0 0 0 0 5 2 3 0 0 0 3 0 7 0 0 0 0 0 0 0 0 1 13 11 0 0 0 0 0 0 0
79 66 79 61 72 66 100 97 126 52 42 45 57 24 40 32 5 4 3 3 14 7 0 0 0 0 0 1 5 0 4 0 4 0 0 0 2 6 0 0 0 0 0 0 0 1 0 0 0 0 0 0 0 0
59 108 111 93 87 126 109 120 146 61 42 40 16 18 14 11 16 22 8 33 21 22 3 1 0 0 0 0 5 16 4 1 11 3 0 0 3 0 0 0 0 0 0 0 0 0 0 0 0 0 0 0 0 0
92 103 135 128 98 101 106 124 129 155 92 58 5 17 15 14 13 24 8 33 15 2 0 0 0 0 0 0 0 0 0 19 14 5 9 4 2 8 6 10 3 10 0 0 0 0 0 0 0 0 0 0 0 0
16 43 76 53 85 82 92 102 105 111 57 98 17 17 15 18 22 23 16 20 13 0 0 0 0 0 0 0 0 1 3 7 6 2 0 3 4 4 0 0 3 0 0 0 0 0 0 0 0 0 0 0 0 0
6 8 4 58 75 73 74 70 72 76 97 127 99 51 14 13 9 4 1 8 11 15 0 0 0 0 0 0 2 2 1 0 0 0 0 1 0 3 2 2 0 0 0 0 0 0 0 0 0 0 0 0 0 0
0 2 8 17 22 25 32 20 25 78 85 87 96 30 23 15 8 0 0 0 5 21 3 2 0 0 0 1 2 2 1 0 0 0 0 1 2 0 0 0 0 0 0 0 0 0 0 0 0 0 0 0 0 0
10 14 19 10 5 10 25 19 15 27 64 101 102 26 6 27 7 1 4 16 5 1 0 0 0 0 0 1 2 2 2 0 0 0 0 1 0 0 0 0 0 0 0 0 0 0 0 0 0 0 0 0 0 0
8 0 0 5 5 8 3 2 37 53 27 50 88 126 38 5 2 0 1 20 15 1 0 5 1 0 0 0 0 1 0 1 0 2 0 0 0 0 0 0 0 0 0 0 0 0 0 0 0 0 0 0 0 0
0 0 0 0 6 6 15 5 7 17 61 47 34 22 2 2 7 11 15 10 2 2 0 0 1 0 0 0 0 0 2 1 1 0 0 0 0 0 0 0 0 0 0 0 0 0 0 0 0 0 0 0 0 0
2 3 1 0 1 2 1 3 8 26 47 5 0 4 0 1 0 0 0 0 0 0 1 0 0 0 0 0 0 0 0 0 0 0 1 1 0 0 0 0 0 0 0 0 0 0 0 0 0 0 0 0 0 0
0 0 0 0 1 0 1 7 19 5 0 0 0 1 0 0 0 0 0 0 0 0 0 1 1 0 1 0 0 1 0 0 0 0 1 0 0 0 0 0 0 0 0 0 0 0 0 0 0 0 0 0 0 0
0 0 0 0 0 0 0 5 0 1 0 0 0 0 0 0 0 0 0 0 0 1 2 3 1 1 0 1 0 0 0 0 0 0 0 0 0 0 0 0 0 0 0 0 0 0 0 0 0 0 0 0 0 0
0 0 0 0 0 0 0 0 2 0 0 0 0 0 0 0 0 0 0 0 1 1 2 1 1 0 0 0 0 0 0 0 0 0 0 0 0 0 0 0 0 0 0 0 0 0 0 0 0 0 0 0 0 0
0 0 0 0 0 0 0 0 0 0 0 0 0 0 0 0 0 1 0 1 1 0 0 0 0 0 0 0 0 0 0 0 0 0 0 0 0 0 0 0 0 0 0 0 0 0 0 0 0 0 0 0 0 0
0 0 0 0 0 0 0 0 0 0 0 0 0 0 0 1 1 1 1 0 0 0 0 0 0 0 0 0 0 0 0 0 0 0 0 0 0 0 0 0 0 0 0 0 0 0 0 0 0 0 0 0 0 0
0 0 0 0 0 0 0 0 0 0 0 0 0 0 0 0 0 0 0 0 0 0 0 0 0 0 0 0 0 0 0 0 0 0 0 0 0 0 0 0 0 0 0 0 0 0 0 0 0 0 0 0 0 0
0 0 0 0 0 0 0 0 0 0 0 0 0 1 0 0 0 1 1 0 0 0 0 0 0 0 0 0 0 0 0 0 0 0 0 0 0 0 0 0 0 0 0 0 0 0 0 0 0 0 0 0 0 0
0 0 0 0 0 0 0 0 0 0 0 0 0 0 0 0 0 0 0 0 0 0 0 0 0 0 0 0 0 0 0 0 0 0 0 0 0 0 0 0 0 0 0 0 0 0 0 0 0 0 0 0 0 0
0 0 0 0 0 0 0 0 0 0 0 0 0 0 0 0 0 0 0 0 0 0 0 0 0 0 0 0 0 0 0 0 0 0 0 0 0 0 0 0 0 0 0 0 0 0 0 1 0 0 0 0 0 1
0 0 0 0 0 0 0 0 0 0 0 0 0 0 0 0 0 0 0 0 0 0 0 0 0 0 0 0 0 0 0 0 0 0 0 0 0 0 0 0 0 0 0 0 0 0 0 0 0 0 0 0 0 0
0 0 0 0 0 0 0 0 0 0 0 0 0 0 0 0 0 0 0 0 0 0 0 0 0 0 0 0 0 0 0 0 0 0 0 0 0 0 0 0 0 0 0 0 0 0 0 0 0 0 0 0 0 0
0 0 0 0 0 0 0 0 0 0 0 0 0 0 0 0 0 0 0 0 0 0 0 0 0 0 0 0 0 0 0 0 0 0 0 0 0 0 0 0 0 0 0 0 0 0 0 0 0 0 0 0 0 0
0 0 0 0 0 0 0 0 0 0 0 0 0 0 0 0 0 0 0 0 0 0 0 0 0 0 0 0 0 0 0 0 0 0 0 0 0 0 0 0 0 0 0 0 0 0 0 0 0 0 0 0 0 0
0 0 0 0 0 0 0 0 0 0 0 0 0 0 0 0 0 0 0 0 0 0 0 0 0 0 0 0 0 0 0 0 0 0 0 0 0 0 0 0 0 0 0 0 0 0 0 0 0 0 0 0 0 0
0 0 0 0 0 0 0 0 0 0 0 0 0 0 0 0 0 0 0 0 0 0 0 0 0 0 0 0 0 0 0 0 0 0 0 0 0 0 0 0 0 0 0 0 0 0 0 0 0 0 0 0 1 1
0 0 0 0 0 0 0 0 0 0 0 0 0 0 0 0 0 0 0 0 0 0 0 0 0 0 0 0 0 0 0 0 0 0 0 0 0 0 0 0 0 0 0 0 0 0 0 0 0 0 0 0 0 0
0 0 0 0 0 0 0 0 0 0 0 0 0 0 0 0 0 0 0 0 0 0 0 0 0 0 0 0 0 0 0 0 0 0 0 0 0 0 0 0 0 1 0 0 0 0 0 0 0 0 0 0 0 0
0 0 0 0 0 0 0 0 0 0 0 0 0 0 0 0 0 0 0 0 0 0 0 0 0 0 0 0 0 0 0 0 0 0 0 0 0 0 0 0 0 0 0 0 0 0 0 0 0 0 0 0 0 0
0 0 0 0 0 0 0 0 0 0 0 0 0 0 0 0 0 0 0 0 0 0 0 0 0 0 0 0 0 0 0 0 0 0 0 0 0 0 0 0 0 0 0 0 0 0 0 0 0 0 0 0 0 0
0 0 0 0 0 0 0 0 0 0 0 0 0 0 0 0 0 0 0 0 0 0 0 0 0 0 0 0 0 0 0 0 0 0 0 0 0 0 0 0 0 0 0 0 0 0 0 0 0 0 0 0 0 0
0 0 0 0 0 0 0 0 0 0 0 0 0 0 0 0 0 0 0 0 0 0 0 0 0 0 0 0 0 0 0 0 0 0 0 0 0 0 0 0 0 0 0 0 0 0 0 0 0 0 0 0 0 0
0 0 0 0 0 0 0 0 0 0 0 0 0 0 0 0 0 0 0 0 0 0 0 0 0 0 0 0 0 0 0 0 0 0 2 5 4 0 0 0 0 0 0 0 0 0 0 0 0 0 0 0 0 0
CIN
-0 -0 -0 -0 -0 -0 -0 -0 -0 -0 -2 -3 -2 -3 -1 -1 -0 -0 -0 -0 -0 -0 -0 -0 -0 -0 -0 -1 -0 -3 -1 -0 -0 -2 -2 -0 -1 -0 -0 -0 -0 -0 -0 -0 -4 -3 -4 -0 -0 -0 -0 -0 -0 -0
-0 -2 -0 -0 -0 -0 -0 -0 -0 -6 -3 -4 -0 -2 -0 -0 -1 -0 -0 -1 -0 -0 -0 -0 -0 -0 -0 -7 -0 -0 -0 -1 -4 -0 -0 -0 -0 -1 -0 -0 -0 -0 -0 -1 -0 -8 -0 -0 -0 -0 -0 -0 -0 -0
-1 -0 -1 -0 -0 -0 -0 -0 -0 -6 -4 -3 -5 -0 -0 -0 -0 -0 -0 -0 -3 -0 -0 -0 -0 -0 -0 -0 -13 -0 -1 -0 -1 -0 -0 -0 -3 -0 -0 -0 -0 -0 -0 -0 -0 -0 -0 -0 -0 -0 -0 -0 -0 -0
-0 -0 -0 -0 -1 -0 -0 -0 -0 -0 -4 -0 -0 -0 -0 -0 -0 -0 -0 -2 -4 -0 -0 -0 -0 -0 -0 -0 -0 -0 -0 -3 -1 -1 -1 -7 -1 -2 -0 -4 -2 -10 -0 -0 -0 -0 -0 -0 -0 -0 -0 -0 -0 -0
-14 -3 -0 -5 -0 -0 -0 -0 -0 -0 -3 -0 -3 -0 -0 -0 -0 -0 -2 -6 -13 -0 -0 -0 -0 -0 -0 -0 -0 -0 -0 -4 -1 -0 -0 -1 -1 -1 -0 -0 -4 -0 -0 -0 -0 -0 -0 -0 -0 -0 -0 -0 -0 -0
-4 -3 -5 -1 -0 -0 -0 -0 -0 -0 -0 -0 -2 -8 -0 -0 -0 -0 -0 -5 -4 -4 -0 -0 -0 -0 -0 -0 -0 -0 -0 -0 -0 -0 -0 -1 -0 -2 -1 -0 -0 -0 -0 -0 -0 -2 -0 -0 -0 -0 -0 -0 -0 -0
-0 -0 -0 -0 -0 -1 -1 -5 -6 -1 -0 -0 -0 -5 -3 -0 -0 -0 -0 -0 -0 -1 -4 -1 -1 -0 -0 -0 -0 -0 -2 -0 -0 -0 -0 -0 -4 -1 -6 -0 -0 -0 -0 -0 -0 -0 -0 -0 -0 -0 -0 -0 -0 -0
-3 -2 -0 -1 -0 -3 -1 -1 -0 -0 -0 -0 -0 -7 -15 -1 -0 -0 -1 -15 -23 -15 -0 -0 -0 -0 -0 -0 -0 -0 -0 -0 -0 -0 -0 -8 -0 -0 -0 -0 -0 -0 -0 -0 -0 -0 -0 -0 -0 -0 -0 -0 -0 -0
-0 -0 -0 -0 -0 -0 -0 -0 -0 -0 -1 -0 -2 -1 -6 -0 -0 -0 -2 -5 -5 -5 -0 -2 -0 -0 -0 -0 -0 -0 -0 -0 -0 -0 -0 -0 -0 -0 -0 -0 -0 -0 -0 -0 -0 -0 -0 -0 -0 -0 -0 -0 -0 -0
-0 -0 -3 -0 -0 -0 -0 -0 -0 -0 -0 -1 -2 -1 -4 -10 -14 -10 -1 -0 -1 -6 -0 -0 -1 -0 -0 -0 -0 -0 -0 -0 -0 -0 -0 -0 -0 -0 -0 -0 -0 -0 -0 -0 -0 -0 -0 -0 -0 -0 -0 -0 -0 -0
-0 -0 -0 -0 -0 -0 -0 -0 -1 -0 -0 -0 -0 -2 -0 -0 -0 -0 -0 -0 -0 -0 -0 -0 -0 -0 -0 -0 -0 -0 -0 -0 -0 -0 -0 -0 -0 -0 -0 -0 -0 -0 -0 -0 -0 -0 -0 -0 -0 -0 -0 -0 -0 -0
-0 -0 -0 -0 -0 -0 -0 -1 -1 -1 -0 -0 -0 -0 -0 -0 -0 -0 -0 -0 -0 -0 -0 -0 -0 -0 -0 -0 -0 -0 -0 -0 -0 -0 -0 -0 -0 -0 -0 -0 -0 -0 -0 -0 -0 -0 -0 -0 -0 -0 -0 -0 -0 -0
-0 -0 -0 -0 -0 -0 -0 -0 -0 -0 -0 -0 -0 -0 -0 -0 -0 -0 -0 -0 -0 -0 -0 -0 -0 -0 -0 -0 -0 -0 -0 -0 -0 -0 -0 -0 -0 -0 -0 -0 -0 -0 -0 -0 -0 -0 -0 -0 -0 -0 -0 -0 -0 -0
-0 -0 -0 -0 -0 -0 -0 -0 -0 -0 -0 -0 -0 -0 -0 -0 -0 -0 -0 -0 -0 -0 -0 -0 -0 -0 -0 -0 -0 -0 -0 -0 -0 -0 -0 -0 -0 -0 -0 -0 -0 -0 -0 -0 -0 -0 -0 -0 -0 -0 -0 -0 -0 -0
-0 -0 -0 -0 -0 -0 -0 -0 -0 -0 -0 -0 -0 -0 -0 -0 -0 -0 -0 -0 -0 -0 -0 -0 -0 -0 -0 -0 -0 -0 -0 -0 -0 -0 -0 -0 -0 -0 -0 -0 -0 -0 -0 -0 -0 -0 -0 -0 -0 -0 -0 -0 -0 -0
-0 -0 -0 -0 -0 -0 -0 -0 -0 -0 -0 -0 -0 -0 -0 -0 -0 -0 -0 -0 -0 -0 -0 -0 -0 -0 -0 -0 -0 -0 -0 -0 -0 -0 -0 -0 -0 -0 -0 -0 -0 -0 -0 -0 -0 -0 -0 -0 -0 -0 -0 -0 -0 -0
-0 -0 -0 -0 -0 -0 -0 -0 -0 -0 -0 -0 -0 -0 -0 -0 -0 -0 -0 -0 -0 -0 -0 -0 -0 -0 -0 -0 -0 -0 -0 -0 -0 -0 -0 -0 -0 -0 -0 -0 -0 -0 -0 -0 -0 -0 -0 -0 -0 -0 -0 -0 -0 -0
-0 -0 -0 -0 -0 -0 -0 -0 -0 -0 -0 -0 -0 -0 -0 -0 -0 -0 -0 -0 -0 -0 -0 -0 -0 -0 -0 -0 -0 -0 -0 -0 -0 -0 -0 -0 -0 -0 -0 -0 -0 -0 -0 -0 -0 -0 -0 -0 -0 -0 -0 -0 -0 -0
-0 -0 -0 -0 -0 -0 -0 -0 -0 -0 -0 -0 -0 -0 -0 -0 -0 -0 -0 -0 -0 -0 -0 -0 -0 -0 -0 -0 -0 -0 -0 -0 -0 -0 -0 -0 -0 -0 -0 -0 -0 -0 -0 -0 -0 -0 -0 -0 -0 -0 -0 -0 -0 -0
-0 -0 -0 -0 -0 -0 -0 -0 -0 -0 -0 -0 -0 -0 -0 -0 -0 -0 -0 -0 -0 -0 -0 -0 -0 -0 -0 -0 -0 -0 -0 -0 -0 -0 -0 -0 -0 -0 -0 -0 -0 -0 -0 -0 -0 -0 -0 -0 -0 -0 -0 -0 -0 -0
-0 -0 -0 -0 -0 -0 -0 -0 -0 -0 -0 -0 -0 -0 -0 -0 -0 -0 -0 -0 -0 -0 -0 -0 -0 -0 -0 -0 -0 -0 -0 -0 -0 -0 -0 -0 -0 -0 -0 -0 -0 -0 -0 -0 -0 -0 -0 -0 -0 -0 -0 -0 -0 -0
-0 -0 -0 -0 -0 -0 -0 -0 -0 -0 -0 -0 -0 -0 -0 -0 -0 -0 -0 -0 -0 -0 -0 -0 -0 -0 -0 -0 -0 -0 -0 -0 -0 -0 -0 -0 -0 -0 -0 -0 -0 -0 -0 -0 -0 -0 -0 -0 -0 -0 -0 -0 -0 -0
-0 -0 -0 -0 -0 -0 -0 -0 -0 -0 -0 -0 -0 -0 -0 -0 -0 -0 -0 -0 -0 -0 -0 -0 -0 -0 -0 -0 -0 -0 -0 -0 -0 -0 -0 -0 -0 -0 -0 -0 -0 -0 -0 -0 -0 -0 -0 -0 -0 -0 -0 -1 -0 -0
-0 -0 -0 -0 -0 -0 -0 -0 -0 -0 -0 -0 -0 -0 -0 -0 -0 -0 -0 -0 -0 -0 -0 -0 -0 -0 -0 -0 -0 -0 -0 -0 -0 -0 -0 -0 -0 -0 -0 -0 -0 -0 -0 -0 -0 -0 -0 -0 -0 -0 -0 -0 -0 -0
-0 -0 -0 -0 -0 -0 -0 -0 -0 -0 -0 -0 -0 -0 -0 -0 -0 -0 -0 -0 -0 -0 -0 -0 -0 -0 -0 -0 -0 -0 -0 -0 -0 -0 -0 -0 -0 -0 -0 -0 -0 -0 -0 -0 -0 -0 -0 -0 -0 -0 -0 -0 -0 -0
-0 -0 -0 -0 -0 -0 -0 -0 -0 -0 -0 -0 -0 -0 -0 -0 -0 -0 -0 -0 -0 -0 -0 -0 -0 -0 -0 -0 -0 -0 -0 -0 -0 -0 -0 -0 -0 -0 -0 -0 -0 -0 -0 -0 -0 -0 -0 -0 -0 -0 -0 -0 -1 -2
-0 -0 -0 -0 -0 -0 -0 -0 -0 -0 -0 -0 -0 -0 -0 -0 -0 -0 -0 -0 -0 -0 -0 -0 -0 -0 -0 -0 -0 -0 -0 -0 -0 -0 -0 -0 -0 -0 -0 -0 -0 -0 -0 -0 -0 -0 -0 -0 -0 -0 -0 -0 -0 -0
-0 -0 -0 -0 -0 -0 -0 -0 -0 -0 -0 -0 -0 -0 -0 -0 -0 -0 -0 -0 -0 -0 -0 -0 -0 -0 -0 -0 -0 -0 -0 -0 -0 -0 -0 -0 -0 -0 -0 -0 -0 -1 -0 -0 -0 -0 -0 -0 -0 -0 -0 -0 -0 -0
-0 -0 -0 -0 -0 -0 -0 -0 -0 -0 -0 -0 -0 -0 -0 -0 -0 -0 -0 -0 -0 -0 -0 -0 -0 -0 -0 -0 -0 -0 -0 -0 -0 -0 -0 -0 -0 -0 -0 -0 -0 -0 -0 -0 -0 -0 -0 -0 -0 -0 -0 -0 -0 -0
-0 -0 -0 -0 -0 -0 -0 -0 -0 -0 -0 -0 -0 -0 -0 -0 -0 -0 -0 -0 -0 -0 -0 -0 -0 -0 -0 -0 -0 -0 -0 -0 -0 -0 -0 -0 -0 -0 -0 -0 -0 -0 -0 -0 -0 -0 -0 -0 -0 -0 -0 -0 -0 -0
-0 -0 -0 -0 -0 -0 -0 -0 -0 -0 -0 -0 -0 -0 -0 -0 -0 -0 -0 -0 -0 -0 -0 -0 -0 -0 -0 -0 -0 -0 -0 -0 -0 -0 -0 -0 -0 -0 -0 -0 -0 -0 -0 -0 -0 -0 -0 -0 -0 -0 -0 -0 -0 -0
-0 -0 -0 -0 -0 -0 -0 -0 -0 -0 -0 -0 -0 -0 -0 -0 -0 -0 -0 -0 -0 -0 -0 -0 -0 -0 -0 -0 -0 -0 -0 -0 -0 -0 -0 -0 -0 -0 -0 -0 -0 -0 -0 -0 -0 -0 -0 -0 -0 -0 -0 -0 -0 -0
-0 -0 -0 -0 -0 -0 -0 -0 -0 -0 -0 -0 -0 -0 -0 -0 -0 -0 -0 -0 -0 -0 -0 -0 -0 -0 -0 -0 -0 -0 -0 -0 -0 -0 -0 -0 -0 -0 -0 -0 -0 -0 -0 -0 -0 -0 -0 -0 -0 -0 -0 -0 -0 -0
Wind_Speed
26 30 30 29 27 27 27 28 29 28 28 26 24 23 21 19 14 17 18 12 19 26 29 27 27 33 33 34 39 33 37 33 34 40 41 42 43 41 43 40 39 38 38 40 40 47 52 28 26 33 32 26 25 24
23 21 20 21 24 26 26 25 24 24 24 22 22 21 21 16 18 22 20 17 18 23 26 25 29 31 32 33 35 32 34 33 30 33 33 33 41 37 38 43 33 41 35 36 35 35 27 23 25 24 27 26 22 20
11 19 26 25 25 25 24 23 24 27 29 25 25 27 22 20 20 17 20 16 18 24 31 32 33 34 30 31 31 36 33 31 32 30 35 33 34 29 34 37 38 32 31 36 34 36 36 31 28 26 22 23 21 19
3 3 25 25 23 22 21 21 23 26 26 22 21 22 22 17 17 15 18 14 16 22 29 31 25 29 27 27 29 30 37 34 31 29 33 34 40 32 38 35 35 31 27 34 37 35 31 30 27 27 27 26 24 20
22 23 28 26 22 22 21 22 23 24 26 24 21 22 24 18 17 16 21 19 17 21 28 32 34 35 30 29 28 26 31 36 38 38 36 40 36 36 37 38 39 30 32 35 37 28 23 31 27 25 26 27 27 25
21 22 24 25 20 19 20 21 23 25 26 26 27 22 22 18 14 16 23 21 16 18 26 34 28 30 28 25 25 26 25 27 29 32 34 31 33 35 40 44 40 37 28 22 28 35 34 33 27 25 26 26 23 19
19 19 19 19 20 20 20 7 14 20 24 27 27 27 22 18 14 18 21 19 10 11 22 29 30 25 24 27 26 25 23 25 26 28 30 32 33 29 30 33 30 31 32 31 29 30 32 27 27 24 23 22 18 17
15 16 16 18 19 20 20 21 20 20 10 21 22 24 22 15 17 21 16 9 9 17 20 27 30 30 20 24 23 20 23 24 27 31 31 30 27 29 34 34 30 30 32 31 30 27 28 26 24 23 22 21 19 16
19 18 12 15 17 18 20 24 23 22 19 18 14 14 17 19 20 21 13 10 15 15 20 20 24 29 16 18 20 18 20 24 22 27 30 29 31 33 32 31 30 29 28 30 29 29 27 27 25 25 22 19 17 15
21 9 9 9 8 10 13 20 25 25 22 15 3 5 11 12 11 9 12 16 15 11 10 22 17 26 17 18 20 19 20 23 27 25 23 26 31 29 29 31 33 33 31 29 30 31 29 27 24 21 20 18 15 16
12 5 12 11 6 10 15 11 21 28 26 25 25 24 17 11 12 8 1 2 4 6 12 20 14 14 24 25 23 21 25 24 27 25 23 24 28 24 28 30 31 32 33 32 29 30 28 25 21 19 18 16 16 16
4 14 17 20 20 21 23 8 24 23 21 22 17 19 19 17 12 12 14 11 11 10 4 1 5 7 16 22 18 17 22 20 26 21 24 28 24 27 28 29 29 28 27 25 25 25 23 21 19 17 17 18 17 14
2 6 12 15 19 22 23 19 19 19 19 18 11 11 12 9 11 9 9 7 7 4 4 5 7 7 6 4 5 9 8 15 17 19 23 26 26 28 28 26 25 24 22 20 20 20 19 19 18 18 18 18 17 16
6 1 14 20 20 23 22 20 17 14 13 13 11 9 8 7 5 3 3 7 10 9 7 6 7 5 7 5 6 2 7 9 8 20 22 23 25 25 24 23 22 23 22 21 21 20 20 20 20 20 19 19 19 19
15 21 29 28 26 24 20 17 15 14 11 9 8 6 4 7 9 11 13 12 15 15 11 11 13 11 12 11 12 13 16 19 17 23 21 20 21 22 23 24 24 25 25 25 24 24 24 24 24 24 23 23 22 22
19 20 26 30 23 25 19 15 14 11 11 10 11 10 11 10 12 13 15 15 18 17 15 16 15 16 15 16 15 16 20 23 22 21 22 22 23 24 25 26 27 27 27 28 27 28 28 28 28 29 28 27 27 27
21 22 28 28 21 20 23 15 14 14 13 13 14 14 15 16 17 18 19 19 20 16 18 17 18 18 17 20 20 19 22 22 22 23 24 25 26 28 29 30 31 31 31 31 31 31 32 32 32 34 36 34 34 34
21 23 28 25 20 19 19 18 16 16 17 17 17 17 17 17 18 19 20 22 20 19 18 20 18 20 22 24 23 22 22 24 26 27 29 30 31 33 33 34 34 33 34 35 35 36 36 37 38 38 38 38 38 37
22 25 28 25 21 19 19 20 19 19 19 18 17 17 17 17 17 19 19 19 18 18 18 19 21 23 23 22 24 26 27 29 32 33 33 34 34 35 35 36 37 37 37 36 36 36 35 34 34 35 35 35 35 34
19 26 24 26 20 20 20 20 19 19 20 18 17 18 17 17 17 18 19 19 18 18 19 21 21 22 23 25 27 29 30 31 33 37 37 34 33 34 34 35 35 36 36 36 35 34 34 34 32 32 31 31 32 34
21 23 23 21 21 22 20 20 20 19 18 17 17 17 17 17 18 19 20 21 19 20 20 20 22 24 26 27 28 29 30 30 32 32 35 38 35 34 35 35 33 32 33 33 34 34 34 33 33 30 28 29 30 30
22 22 20 21 20 20 20 20 18 17 17 17 17 18 18 18 19 20 20 19 19 20 21 24 26 29 31 32 32 31 31 31 31 31 31 32 37 36 34 31 30 31 33 32 29 31 32 28 26 26 24 23 24 25
20 20 20 22 20 21 19 18 18 18 17 17 17 18 18 18 19 19 18 18 18 20 22 24 28 29 30 32 30 31 29 30 31 30 30 33 23 15 20 18 17 16 13 8 10 12 17 23 23 23 23 22 20 21
21 20 21 21 21 19 17 18 18 18 17 18 18 18 18 19 19 18 18 18 20 20 21 11 15 22 22 22 24 25 26 27 23 21 19 18 20 21 19 11 6 6 5 8 12 10 6 9 10 19 18 16 14 14
20 22 20 20 19 18 18 18 19 18 18 18 18 18 18 19 18 18 18 21 27 26 21 17 16 15 15 15 15 16 16 15 17 19 19 14 12 10 5 5 10 9 5 6 11 16 19 20 21 22 22 21 21 21
20 20 18 19 18 17 17 17 18 18 18 17 18 17 18 18 18 18 20 8 17 18 17 15 14 15 13 13 14 15 15 14 13 12 14 9 9 14 14 12 9 7 16 15 15 15 14 15 15 16 21 26 30 30
17 18 18 18 16 16 16 17 17 18 18 17 17 18 18 18 19 18 14 18 15 14 12 11 10 10 11 14 14 12 9 5 2 5 11 14 12 8 4 7 7 8 8 8 4 2 1 3 10 17 21 24 26 27
17 18 17 18 17 17 16 17 18 18 18 17 16 17 18 18 19 13 8 12 13 12 12 11 10 10 12 13 12 11 8 3 5 11 11 4 8 11 12 5 3 3 5 6 7 7 8 10 11 12 18 19 19 19
17 19 17 17 16 16 17 17 17 17 17 17 16 16 16 18 19 20 8 17 15 13 13 14 15 15 14 13 10 7 1 4 15 19 19 17 15 8 6 5 7 9 7 9 10 12 14 16 17 17 13 12 12 11
19 19 17 17 16 17 16 16 16 17 17 16 15 15 16 15 18 19 20 20 20 18 17 15 13 16 16 17 17 17 13 5 12 13 11 12 12 8 4 8 9 10 10 13 17 18 19 19 19 19 13 10 9 8
19 18 17 16 16 16 17 18 17 16 16 16 15 16 18 20 19 20 22 21 19 17 18 19 18 16 17 17 18 18 19 17 19 15 11 5 7 5 7 8 10 13 14 16 18 21 22 23 23 17 7 5 5 7
20 19 18 17 17 18 19 19 17 16 16 16 16 16 18 19 19 20 22 22 22 22 21 20 19 18 15 14 12 6 8 15 15 12 12 12 6 5 8 9 12 16 19 21 24 25 25 26 25 10 5 1 2 5
19 19 19 19 18 18 20 21 18 18 17 16 16 18 17 18 19 20 21 23 22 20 20 19 18 18 16 14 13 13 15 12 15 15 17 18 4 20 16 12 14 19 23 25 26 27 28 29 29 25 12 6 6 8
Wind_Direction
273 270 267 267 269 270 276 279 277 277 277 276 274 271 274 272 262 269 287 273 281 282 283 287 287 283 287 287 284 289 287 284 284 279 281 280 280 280 281 280 281 279 281 281 283 284 286 292 296 287 300 308 309 311
274 275 271 269 267 268 274 279 284 278 276 278 275 275 273 268 263 263 278 274 283 286 288 293 289 287 288 288 289 287 285 287 287 289 286 289 285 284 282 282 277 279 278 283 282 291 301 304 300 304 301 305 309 310
292 275 258 260 263 267 275 281 281 271 265 271 271 268 268 262 266 266 273 276 281 287 290 289 289 289 290 285 284 283 285 286 285 281 285 288 288 302 287 281 282 287 286 281 286 288 289 294 297 299 302 300 306 306
107 300 259 263 268 274 281 284 281 275 271 273 276 271 268 270 267 266 273 279 285 293 293 294 299 295 301 297 287 278 279 282 287 286 280 282 282 288 287 291 290 289 288 285 287 288 297 297 295 295 295 295 296 297
184 191 245 256 273 277 282 282 281 277 271 270 271 270 264 273 274 271 275 283 286 292 295 295 298 296 297 298 293 290 281 278 278 278 278 279 284 285 286 287 283 282 285 284 285 293 293 297 302 302 298 293 292 294
197 208 220 246 282 289 289 286 282 275 270 267 263 267 269 274 281 285 281 286 285 294 301 296 304 300 302 301 295 290 287 287 283 284 280 281 285 287 286 284 285 285 281 280 284 288 292 297 299 304 303 302 301 298
189 191 191 196 197 195 197 189 292 283 274 267 265 264 268 270 270 278 290 305 310 303 304 303 303 308 310 304 295 288 287 288 287 287 282 284 285 291 292 295 301 294 291 285 285 290 290 296 300 305 303 311 310 307
192 202 222 233 222 217 206 202 194 188 223 275 272 268 267 269 274 278 290 314 323 312 311 303 303 305 312 301 298 295 293 291 284 283 286 286 289 287 287 293 299 299 289 289 290 293 295 298 304 305 307 309 305 304
95 86 218 242 255 235 219 211 200 189 177 169 163 281 275 272 275 280 287 288 306 311 311 313 308 304 321 301 304 303 300 296 299 290 285 285 283 283 290 295 298 301 299 294 295 293 294 298 300 302 304 304 302 304
106 188 152 165 222 229 231 211 199 185 172 153 108 89 301 296 299 308 294 295 301 302 302 304 316 299 294 299 301 304 308 304 299 299 304 289 286 290 296 294 291 292 296 298 294 292 297 299 300 301 303 306 306 301
121 222 278 269 204 276 284 211 162 164 161 161 166 173 272 298 291 315 297 178 336 309 313 308 299 287 286 281 287 298 301 307 302 302 297 298 297 304 306 302 298 295 293 292 294 296 299 301 301 303 307 310 306 302
296 324 325 325 320 323 329 22 116 127 135 140 126 130 150 152 143 159 167 159 172 184 138 124 360 336 302 281 291 306 305 312 305 315 300 291 299 305 309 309 307 306 305 302 300 301 303 306 307 306 306 303 307 310
269 300 315 315 326 341 355 27 74 88 93 112 94 108 124 115 144 145 158 147 152 108 93 88 110 79 29 3 342 329 323 318 326 315 305 296 298 304 308 311 315 318 317 319 313 312 314 311 307 305 304 304 307 308
110 196 308 323 326 352 15 50 66 62 62 97 104 105 123 102 105 56 358 345 341 355 17 30 13 35 9 15 356 12 352 347 340 312 309 306 305 309 313 314 316 317 320 319 316 314 311 308 307 309 311 310 308 306
54 31 1 344 345 355 13 23 37 35 48 65 65 56 29 5 354 349 340 339 332 329 335 335 333 332 330 330 330 329 324 314 320 312 319 324 322 320 317 315 314 313 313 313 313 310 309 308 306 305 305 305 305 304
30 27 8 343 14 4 22 32 25 31 30 22 14 8 1 350 338 336 331 327 325 321 323 324 322 322 316 318 316 312 311 308 316 320 321 321 320 320 318 316 314 313 312 310 309 307 305 303 302 301 301 301 300 299
18 18 360 359 17 19 8 27 23 11 9 357 347 346 340 335 329 327 326 323 320 317 313 316 312 310 318 310 309 313 309 314 317 318 319 318 316 314 313 312 312 311 310 308 306 304 303 302 300 298 296 296 296 295
14 9 360 6 16 16 16 14 12 5 352 351 342 342 340 337 330 328 324 321 316 313 311 309 315 307 306 304 307 313 314 315 313 313 313 313 312 312 311 310 310 309 307 306 304 303 301 300 298 296 296 296 296 295
5 2 359 5 12 12 5 3 3 354 355 356 354 351 347 343 341 336 330 328 325 321 317 314 309 307 307 311 311 312 312 312 310 310 311 312 312 311 311 310 308 307 307 306 305 304 303 302 301 300 300 299 297 297
10 359 4 5 14 6 3 2 9 0 355 359 3 358 356 353 349 346 342 338 333 328 321 316 313 314 313 313 313 312 312 314 312 310 311 316 317 316 314 313 312 311 309 308 307 307 306 304 304 303 302 301 299 297
6 3 6 15 14 13 9 5 3 9 9 8 9 4 2 359 354 347 341 338 336 331 326 326 322 319 318 316 315 315 315 316 314 314 313 313 318 318 316 315 315 314 312 311 309 308 307 305 305 306 305 303 301 300
3 6 13 15 11 12 13 16 14 19 14 14 11 8 5 1 357 353 348 347 345 341 334 327 321 317 315 314 314 315 316 316 317 319 320 319 314 316 320 322 321 317 314 313 314 311 309 312 313 310 310 310 308 306
7 12 11 8 7 6 8 18 14 12 11 12 16 11 9 8 7 7 5 7 6 4 351 341 330 324 319 313 316 313 318 320 320 325 327 321 327 288 257 254 250 251 256 286 323 324 324 320 318 316 313 312 312 310
9 6 1 2 5 8 15 14 17 17 19 16 14 14 13 10 6 13 12 14 11 15 11 274 262 278 275 273 278 279 284 284 266 263 260 259 261 261 255 253 275 315 287 256 244 244 287 323 322 321 320 320 320 319
356 356 3 1 9 10 9 12 12 17 17 17 18 17 15 17 15 14 13 1 335 310 287 275 270 263 261 259 259 262 262 260 266 272 271 260 258 261 287 299 252 252 303 320 338 338 334 329 322 315 311 309 307 308
354 2 4 4 7 11 14 15 16 20 22 22 22 29 26 20 18 17 15 325 280 282 280 275 271 269 264 259 263 266 270 270 267 268 273 271 270 266 267 269 276 338 357 350 347 344 343 342 337 328 316 301 285 280
1 3 10 14 17 20 21 23 27 25 23 23 27 28 25 20 17 29 57 44 276 274 265 259 255 252 257 267 264 256 257 263 325 287 278 277 271 267 303 336 322 351 7 12 44 69 167 64 19 347 319 291 269 263
9 3 4 1 12 14 21 25 25 26 27 34 41 30 25 23 4 253 141 266 275 268 267 263 253 252 264 267 261 259 258 291 302 282 283 298 35 29 26 355 258 241 77 163 179 156 104 92 86 73 314 274 267 256
7 356 5 3 11 13 17 27 29 32 34 43 45 36 31 12 358 313 94 287 282 279 281 287 288 286 282 278 267 252 156 45 300 308 311 312 317 352 14 56 74 76 175 173 215 70 75 68 67 73 265 266 260 253
354 347 357 360 6 4 12 19 25 22 31 41 54 42 15 29 6 17 300 304 304 299 291 285 281 293 298 302 302 303 293 284 293 305 316 320 324 323 26 73 83 91 114 90 58 52 52 55 64 61 333 269 255 244
334 342 352 355 1 0 358 351 1 12 18 28 39 35 358 305 312 359 316 309 301 296 300 305 303 297 302 304 306 306 306 304 307 305 320 30 345 32 69 92 99 97 100 102 94 75 70 72 64 23 316 297 243 216
331 341 341 342 346 344 342 344 352 358 6 10 14 23 358 327 316 320 318 316 317 317 312 307 304 300 295 290 288 278 285 294 301 304 319 63 345 51 79 97 106 101 94 94 90 88 90 92 103 126 355 341 188 179
340 338 338 338 339 336 333 332 340 341 347 352 354 350 360 345 316 316 327 331 319 309 307 301 294 293 290 292 295 301 306 300 305 313 323 332 8 74 84 95 104 104 98 98 99 96 99 101 108 126 153 159 159 163